Weather History for KHVS - June, 2013

Change the Weather History Date:

Tuesday, June 11, 2013

  Actual Average (KFLO) Record (KFLO)
Temperature  
Mean Temperature 80 °F 78 °F  
Max Temperature 89 °F 88 °F 101 °F (1963)
Min Temperature 71 °F 67 °F 55 °F (1972)
Degree Days  
Heating Degree Days 0 0  
Month to date heating degree days 0  
Since 1 June heating degree days 0  
Since 1 July heating degree days 2523  
Cooling Degree Days 15 13  
Month to date cooling degree days 126  
Year to date cooling degree days 433  
Since 1 June cooling degree days 126  
Growing Degree Days 30 (Base 50)    
Moisture  
Dew Point 65 °F    
Average Humidity 58    
Maximum Humidity 100    
Minimum Humidity 38    
Precipitation  
Precipitation 0.00 in 0.16 in 1.12 in (2012)
Month to date precipitation 1.73  
Year to date precipitation 17.09  
Sea Level Pressure  
Sea Level Pressure 29.97 in    
Wind  
Wind Speed 3 mph (SW)    
Max Wind Speed 9 mph    
Max Gust Speed 17 mph    
Visibility 9 miles    
Events      
T = Trace of Precipitation, MM = Missing Value Source: NWS Daily Summary

Daily Weather History Graph

Daily Weather History Graph

Search for Another Location

Airport or City:

Trip Planner

Search our weather history database for the weather conditions in past years. The results will help you decide how hot, cold, wet, or windy it might be!

Date:

Astronomy

Jun. 11, 2013 Rise Set
Actual Time 6:07 AM EDT 8:32 PM EDT
Civil Twilight 5:38 AM EDT 9:02 PM EDT
Nautical Twilight 5:02 AM EDT 9:38 PM EDT
Astronomical Twilight 4:22 AM EDT 10:18 PM EDT
Moon 8:44 AM EDT (6/11) 10:41 PM EDT (6/11)
Length of Visible Light 15h 23m
Length of Day
14h 25m
Waxing Crescent, 8% of the Moon is Illuminated
Jun 11
Waxing Crescent
Jun 16
First Quarter
Jun 23
Full
Jun 30
Last Quarter
Jul 8
New

Hourly Weather History & Observations

Time (EDT) Temp. Heat Index Dew Point Humidity Pressure Visibility Wind Dir Wind Speed Gust Speed Precip Events Conditions
12:15 AM 71.6 °F - - N/A% 30.00 in 10.0 mi SSW 4.6 mph - N/A   Overcast
12:35 AM 71.6 °F - - N/A% 30.00 in 7.0 mi SW 4.6 mph - N/A   Overcast
12:55 AM 71.6 °F - - N/A% 30.01 in 7.0 mi Calm Calm - N/A   Overcast
1:15 AM 71.6 °F - - N/A% 30.00 in 10.0 mi SW 6.9 mph - N/A   Overcast
1:35 AM 71.6 °F - - N/A% 30.00 in 10.0 mi SW 3.5 mph - N/A   Overcast
1:55 AM 71.6 °F - - N/A% 29.99 in 7.0 mi SW 8.1 mph - N/A   Overcast
2:15 AM 71.6 °F - - N/A% 29.99 in 10.0 mi SW 8.1 mph - N/A   Overcast
2:35 AM 71.6 °F - - N/A% 29.99 in 10.0 mi Calm Calm - N/A   Overcast
2:55 AM 71.6 °F - - N/A% 30.00 in 10.0 mi Calm Calm - N/A   Overcast
3:15 AM 71.6 °F - - N/A% 29.99 in 10.0 mi SW 5.8 mph - N/A   Overcast
3:35 AM 71.6 °F - 71.6 °F 100% 29.99 in 10.0 mi SW 8.1 mph - N/A   Overcast
1:55 PM 86.0 °F 88.2 °F 66.2 °F 51% 29.97 in 10.0 mi Calm Calm - N/A   Mostly Cloudy
2:15 PM 87.8 °F 89.4 °F 64.4 °F 46% 29.97 in 10.0 mi WSW 5.8 mph - N/A   Scattered Clouds
2:35 PM 87.8 °F 89.4 °F 64.4 °F 46% 29.97 in 7.0 mi WSW 9.2 mph 17.3 mph N/A   Mostly Cloudy
2:55 PM 89.6 °F 91.1 °F 64.4 °F 43% 29.97 in 10.0 mi Calm Calm - N/A   Scattered Clouds
3:15 PM 86.0 °F 87.3 °F 64.4 °F 48% 29.96 in 10.0 mi Calm Calm - N/A   Scattered Clouds
3:35 PM 89.6 °F 90.1 °F 62.6 °F 40% 29.95 in 10.0 mi West 8.1 mph - N/A   Scattered Clouds
3:55 PM 89.6 °F 90.1 °F 62.6 °F 40% 29.95 in 10.0 mi Calm Calm - N/A   Scattered Clouds
4:15 PM 87.8 °F 88.5 °F 62.6 °F 43% 29.95 in 10.0 mi Calm Calm - N/A   Scattered Clouds
4:35 PM 89.6 °F 90.1 °F 62.6 °F 40% 29.95 in 10.0 mi West 3.5 mph - N/A   Scattered Clouds
4:55 PM 89.6 °F 90.1 °F 62.6 °F 40% 29.95 in 10.0 mi Calm Calm - N/A   Clear
5:15 PM 89.6 °F 90.1 °F 62.6 °F 40% 29.95 in 10.0 mi Calm Calm - N/A   Clear
5:35 PM 87.8 °F 88.5 °F 62.6 °F 43% 29.95 in 10.0 mi Calm Calm - N/A   Scattered Clouds
5:55 PM 87.8 °F 88.5 °F 62.6 °F 43% 29.95 in 10.0 mi Calm Calm - N/A   Scattered Clouds
6:15 PM 87.8 °F 87.6 °F 60.8 °F 40% 29.94 in 10.0 mi Calm Calm - N/A   Scattered Clouds
6:35 PM 87.8 °F 87.6 °F 60.8 °F 40% 29.95 in 10.0 mi Calm Calm - N/A   Clear
6:55 PM 87.8 °F 87.1 °F 59.0 °F 38% 29.95 in 10.0 mi Calm Calm - N/A   Clear
7:15 PM 87.8 °F 87.1 °F 59.0 °F 38% 29.95 in 10.0 mi Calm Calm - N/A   Clear
7:35 PM 86.0 °F 86.1 °F 60.8 °F 43% 29.95 in 10.0 mi Calm Calm - N/A   Clear
7:55 PM 82.4 °F 83.4 °F 62.6 °F 51% 29.96 in 10.0 mi Calm Calm - N/A   Clear
8:15 PM 80.6 °F 82.3 °F 64.4 °F 58% 29.96 in 10.0 mi Calm Calm - N/A   Clear
8:35 PM 78.8 °F - 64.4 °F 61% 29.97 in 10.0 mi Calm Calm - N/A   Clear
8:55 PM 77.0 °F - 66.2 °F 69% 29.97 in 10.0 mi Calm Calm - N/A   Clear
9:15 PM 75.2 °F - 68.0 °F 78% 29.97 in 10.0 mi Calm Calm - N/A   Clear
9:35 PM 75.2 °F - 68.0 °F 78% 29.97 in 10.0 mi Calm Calm - N/A   Clear
9:55 PM 73.4 °F - 68.0 °F 83% 29.98 in 10.0 mi Calm Calm - N/A   Clear
10:15 PM 71.6 °F - 68.0 °F 88% 29.99 in 7.0 mi Calm Calm - N/A   Clear
10:35 PM 71.6 °F - 68.0 °F 88% 29.99 in 7.0 mi Calm Calm - N/A   Clear
10:55 PM 71.6 °F - 69.8 °F 94% 29.99 in 10.0 mi Calm Calm - N/A   Clear
11:15 PM 71.6 °F - 66.2 °F 83% 30.00 in 10.0 mi Calm Calm - N/A   Scattered Clouds
11:35 PM 73.4 °F - 66.2 °F 78% 30.00 in 7.0 mi Calm Calm - N/A   Mostly Cloudy
11:55 PM 73.4 °F - 68.0 °F 83% 30.00 in 7.0 mi Calm Calm - N/A   Overcast